Location: Houston
(29.7630°N, 95.3630°W)
Time: 06:21:08
(UTC-05:00)

ISS - All Passes

Search period start: 20 October 2014 00:00
Search period end: 30 October 2014 00:00
Orbit: 413 x 416 km, 51.6° (Epoch: 20 October)

Date Brightness Start Highest point End Pass type
(mag) Time Alt. Az. Time Alt. Az. Time Alt. Az.
20 Oct - 13:45:45 10° SSW 13:48:48 34° SE 13:51:51 10° ENE daylight
20 Oct - 15:23:21 10° W 15:25:34 16° NW 15:27:47 10° N daylight
20 Oct - 21:55:37 10° NNW 21:58:36 30° NE 22:01:34 10° ESE night (unlit)
20 Oct - 23:32:57 10° W 23:35:05 16° SW 23:37:13 10° SSW night (unlit)
21 Oct - 12:57:42 10° S 12:59:56 17° SE 13:02:10 10° E daylight
21 Oct - 14:33:30 10° WSW 14:36:26 28° NW 14:39:22 10° NNE daylight
21 Oct - 21:07:10 10° N 21:09:28 17° NE 21:11:44 10° E visible
21 Oct - 22:43:11 10° WNW 22:46:12 32° SW 22:49:13 10° SSE night (unlit)
22 Oct - 13:44:04 10° SW 13:47:20 57° NW 13:50:37 10° NE daylight
22 Oct - 20:19:41 10° NNE 20:20:12 10° NNE 20:20:44 10° NE visible
22 Oct - 21:53:55 10° NW 21:57:14 73° SW 22:00:32 10° SE night (unlit)
23 Oct - 12:55:00 10° SSW 12:58:17 64° SE 13:01:35 10° NE daylight
23 Oct - 14:34:13 10° NW 14:35:16 11° NNW 14:36:19 10° NNW daylight
23 Oct - 21:04:54 10° NNW 21:08:09 50° NE 21:11:24 10° ESE visible
24 Oct - 12:06:21 10° S 12:09:16 29° SE 12:12:12 10° ENE daylight
24 Oct - 13:43:33 10° W 13:45:58 19° NW 13:48:23 10° N daylight
24 Oct - 20:16:07 10° NNW 20:18:58 26° NE 20:21:49 10° E visible
24 Oct - 21:53:05 10° W 21:55:30 19° SW 21:57:55 10° S night (unlit)
25 Oct - 11:18:24 10° SSE 11:20:16 14° SE 11:22:09 10° E daylight
25 Oct - 12:53:40 10° WSW 12:56:42 33° NW 12:59:45 10° NNE daylight
25 Oct - 19:27:39 10° N 19:29:40 15° NE 19:31:42 10° ENE visible
25 Oct - 21:03:21 10° WNW 21:06:28 39° SW 21:09:35 10° SSE visible
26 Oct - 12:04:12 10° SW 12:07:30 69° NW 12:10:48 10° NE daylight
26 Oct - 20:14:01 10° NW 20:17:21 89° SW 20:20:39 10° SE visible
27 Oct - 11:15:06 10° SSW 11:18:19 52° SE 11:21:33 10° NE daylight
27 Oct - 12:53:41 10° WNW 12:55:13 13° NW 12:56:45 10° N daylight
27 Oct - 19:24:55 10° NNW 19:28:06 42° NE 19:31:17 10° ESE visible
27 Oct - 21:03:26 10° WSW 21:04:27 11° SW 21:05:28 10° SW visible
28 Oct - 10:26:26 10° S 10:29:10 24° SE 10:31:55 10° ENE daylight
28 Oct - 12:03:10 10° W 12:05:47 21° NW 12:08:24 10° NNE daylight
28 Oct - 18:36:04 10° NNW 18:38:46 22° NE 18:41:27 10° E daylight
28 Oct - 20:12:41 10° WNW 20:15:21 22° SW 20:18:01 10° S visible
29 Oct - 09:38:45 10° SSE 09:40:03 12° SE 09:41:21 10° ESE daylight
29 Oct - 11:13:17 10° WSW 11:16:24 39° NW 11:19:33 10° NNE daylight
29 Oct - 17:47:37 10° N 17:49:18 13° NE 17:50:58 10° ENE daylight
29 Oct - 19:22:57 10° NW 19:26:10 48° SW 19:29:22 10° SSE visible
